Regional Weather Roundup
Issued by NWS

Home | Current Version | Previous Version | Text Only | Print | Product List | Glossary On
Versions: 1 2 3 4 5 6 7 8 9 10 11 12 13 14 15 16 17 18 19 20 21 22 23 24 25 26 27 28 29 30 31 32 33 34 35 36 37 38 39 40 41 42 43 44 45 46 47 48 49 50
000
ASUS43 KBIS 281520
RWRND

NORTH DAKOTA REGIONAL WEATHER ROUNDUP
NATIONAL WEATHER SERVICE BISMARCK ND
1000 AM CDT SAT MAR 28 2015

NOTE: "FAIR" INDICATES FEW OR NO CLOUDS BELOW 12,000 FEET WITH NO
SIGNIFICANT WEATHER AND/OR OBSTRUCTIONS TO VISIBILITY.


NDZ001>003-009>011-017-281600-
NORTHWEST NORTH DAKOTA

CITY           SKY/WX    TMP DP  RH WIND       PRES   REMARKS
WILLISTON      SUNNY     46  36  68 S8        29.72F
MINOT          MOSUNNY   34  32  92 SE10      29.81F
MINOT AFB      CLOUDY    31  31 100 SE10      29.80F FOG
$$

NDZ018>021-031>035-040>046-281600-
SOUTHWEST NORTH DAKOTA

CITY           SKY/WX    TMP DP  RH WIND       PRES   REMARKS
BISMARCK       CLOUDY    30  30 100 SE12      29.92F FOG
DICKINSON      SUNNY     49  36  61 S20G25    29.78F
GARRISON         N/A     32  31  96 S12       29.83F
HETTINGER ARPT SUNNY     47  35  63 S14G20    29.85F
$$

NDZ004>008-012>016-024-026-027-054-281600-
NORTHEAST NORTH DAKOTA

CITY           SKY/WX    TMP DP  RH WIND       PRES   REMARKS
GRAND FORKS    PTSUNNY   33  24  69 S18G25    30.05F
GRND FRKS AFB  MOSUNNY   31  24  76 S14       30.03F
DEVILS LAKE    CLOUDY    32  28  86 S15       29.92F
$$

NDZ022-023-025-028>030-036>039-047>053-281600-
SOUTHEAST NORTH DAKOTA

CITY           SKY/WX    TMP DP  RH WIND       PRES   REMARKS
FARGO          SUNNY     35  24  64 S20       30.10F
JAMESTOWN      CLOUDY    32  28  85 S15       29.98F
$$



USA.gov is the U.S. government's official web portal to all federal, state and local government web resources and services.